FW8870 Weather Reports


time (UTC)temp
C
wind
direction
speed
KPH
gust
KPH
rain 1hr
cm
rain 24hr
cm
rain mn
cm
humidity
%
barometer
mb
20260506134244 11 296 0.0 0.0 0.00 0.00 0.00 94 1020.1
20260506133741 11 291 0.0 0.0 0.00 0.00 0.00 94 1020.2
20260506133238 11 320 0.0 0.0 0.00 0.00 0.00 94 1020.2
20260506132735 11 113 0.0 0.0 0.00 0.00 0.00 95 1020.3
20260506132232 11 116 0.0 0.0 0.00 0.00 0.00 95 1020.2
20260506131730 11 62 0.0 0.0 0.00 0.00 0.00 97 1020.3
20260506131226 11 331 0.0 0.0 0.00 0.00 0.00 97 1020.3
20260506130723 11 343 0.0 0.0 0.00 0.00 0.00 97 1020.3
20260506130220 11 290 0.0 0.0 0.00 0.00 0.00 96 1020.4
20260506125718 11 331 0.0 0.0 0.00 0.00 0.00 96 1020.4
20260506125215 11 331 0.0 0.0 0.00 0.00 0.00 97 1020.2
20260506124713 11 359 0.0 0.0 0.00 0.00 0.00 96 1020.2
20260506124211 11 81 0.0 0.0 0.00 0.00 0.00 96 1020.1
20260506123708 11 346 0.0 0.0 0.00 0.00 0.00 96 1020.3
20260506123207 11 17 0.0 0.0 0.00 0.00 0.00 96 1020.2
20260506122703 11 106 0.0 0.0 0.00 0.00 0.00 96 1020.2
20260506122201 11 355 0.0 0.0 0.00 0.00 0.00 95 1019.9
20260506121658 11 282 0.0 0.0 0.00 0.00 0.00 95 1019.7
20260506121154 11 102 0.0 0.0 0.00 0.00 0.00 95 1019.8
20260506120653 11 347 0.0 0.0 0.00 0.00 0.00 95 1019.8
20260506120150 11 126 0.0 0.0 0.00 0.00 0.00 95 1019.8
20260506115648 11 144 0.0 0.0 0.00 0.00 0.00 95 1019.5
20260506115146 11 186 1.6 3.2 0.00 0.00 0.00 95 1019.6
20260506114643 11 309 0.0 0.0 0.00 0.00 0.00 95 1019.9
20260506114141 11 159 0.0 0.0 0.00 0.00 0.00 95 1019.8
20260506113639 11 130 0.0 0.0 0.00 0.00 0.00 95 1019.6
20260506113136 11 335 0.0 0.0 0.00 0.00 0.00 95 1019.6
20260506112632 11 138 0.0 0.0 0.00 0.00 0.00 95 1019.6
20260506112130 11 89 0.0 0.0 0.00 0.00 0.00 95 1019.7
20260506111627 11 336 0.0 0.0 0.00 0.00 0.00 95 1019.6
20260506111125 11 84 0.0 0.0 0.00 0.00 0.00 94 1019.6
20260506110622 11 205 0.0 0.0 0.00 0.00 0.00 93 1019.4
20260506110119 11 40 0.0 0.0 0.00 0.00 0.00 94 1019.3
20260506105616 11 111 0.0 0.0 0.00 0.00 0.00 94 1019.0
20260506105113 11 46 0.0 0.0 0.00 0.00 0.00 94 1019.2
20260506104611 11 117 0.0 0.0 0.00 0.00 0.00 94 1019.1
20260506104108 11 188 0.0 0.0 0.00 0.00 0.00 94 1018.9
20260506103605 11 143 0.0 0.0 0.00 0.00 0.00 93 1018.8
20260506103102 11 169 1.6 3.2 0.00 0.00 0.00 93 1018.7
20260506102600 11 119 1.6 3.2 0.00 0.00 0.00 93 1018.9
20260506102057 11 14 3.2 8.0 0.00 0.00 0.00 93 1018.7
20260506101554 11 171 0.0 0.0 0.00 0.00 0.00 92 1018.7
20260506101051 11 186 0.0 3.2 0.00 0.00 0.00 92 1018.8
20260506100549 12 56 0.0 0.0 0.00 0.00 0.00 92 1018.6
20260506100047 12 325 0.0 0.0 0.00 0.00 0.00 92 1018.6
20260506095546 12 288 0.0 0.0 0.00 0.00 0.00 92 1018.6
20260506095042 12 85 1.6 4.8 0.00 0.00 0.00 92 1018.3
20260506094539 12 159 1.6 8.0 0.00 0.00 0.00 92 1018.6
20260506094037 12 329 0.0 0.0 0.00 0.00 0.00 91 1018.5
20260506093535 12 82 0.0 0.0 0.00 0.00 0.00 91 1018.6
20260506093032 12 65 0.0 0.0 0.00 0.00 0.00 91 1018.5
20260506092530 12 8 0.0 0.0 0.00 0.00 0.00 91 1018.4
20260506092027 12 352 0.0 0.0 0.00 0.00 0.00 92 1018.4
20260506091525 12 111 0.0 0.0 0.00 0.00 0.00 92 1018.1
20260506091022 12 146 0.0 0.0 0.00 0.00 0.00 91 1018.3
20260506090520 12 23 0.0 0.0 0.00 0.00 0.00 91 1018.2
20260506090016 12 21 0.0 0.0 0.00 0.00 0.00 91 1018.5
20260506085513 12 350 0.0 0.0 0.00 0.00 0.00 91 1018.2
20260506085009 12 45 0.0 0.0 0.00 0.00 0.00 91 1018.1
20260506084506 12 117 0.0 0.0 0.00 0.00 0.00 91 1018.1
20260506084002 12 10 0.0 1.6 0.00 0.00 0.00 91 1018.2
20260506083500 12 164 0.0 0.0 0.00 0.00 0.00 91 1018.3
20260506082957 12 7 0.0 0.0 0.00 0.00 0.00 90 1018.0
20260506082454 13 123 0.0 0.0 0.00 0.00 0.00 90 1018.0
20260506081949 13 141 0.0 0.0 0.00 0.00 0.00 89 1018.1
20260506081448 13 180 1.6 3.2 0.00 0.00 0.00 89 1018.0
20260506080945 13 334 0.0 0.0 0.00 0.00 0.00 89 1018.0
20260506080442 13 340 0.0 0.0 0.00 0.00 0.00 89 1017.9
20260506073426 13 245 0.0 0.0 0.00 0.00 0.00 88 1017.6
20260506072923 13 111 0.0 0.0 0.00 0.00 0.00 88 1017.6
20260506072420 13 41 8.0 12.9 0.00 0.00 0.00 88 1017.6
20260506071918 13 111 0.0 0.0 0.00 0.00 0.00 89 1017.5
20260506071416 14 25 0.0 0.0 0.00 0.00 0.00 88 1017.6
20260506070912 14 84 0.0 0.0 0.00 0.00 0.00 87 1017.5
20260506070409 14 82 0.0 0.0 0.00 0.00 0.00 87 1017.4
20260506062347 14 198 0.0 3.2 0.00 0.00 0.00 87 1016.9
20260506061842 14 237 0.0 0.0 0.00 0.00 0.00 87 1016.9
20260506061339 14 349 0.0 0.0 0.00 0.00 0.00 87 1017.1
20260506060837 14 334 0.0 0.0 0.00 0.00 0.00 87 1017.1
20260506060335 14 133 0.0 0.0 0.00 0.00 0.00 87 1016.9
20260506051307 15 318 0.0 0.0 0.00 0.00 0.00 85 1016.8
20260506050805 15 60 0.0 0.0 0.00 0.00 0.00 86 1016.8
20260506050302 15 32 0.0 0.0 0.00 0.00 0.00 87 1016.8
20260506044752 13 335 0.0 0.0 0.00 0.00 0.00 90 1016.7
20260506044250 14 316 0.0 0.0 0.00 0.00 0.00 88 1016.4
20260506043747 14 302 0.0 0.0 0.00 0.00 0.00 87 1016.5
20260506043244 14 317 0.0 0.0 0.00 0.00 0.00 89 1016.4
20260506042743 14 340 0.0 0.0 0.00 0.00 0.00 88 1016.2
20260506042241 15 317 0.0 0.0 0.00 0.00 0.00 86 1016.2
20260506041739 15 343 0.0 0.0 0.00 0.00 0.00 82 1016.1
20260506041236 15 325 0.0 0.0 0.00 0.00 0.00 82 1016.2
20260506040733 15 345 0.0 0.0 0.00 0.00 0.00 85 1016.1
20260506040230 15 324 0.0 0.0 0.00 0.00 0.00 85 1015.8
20260506035727 15 357 0.0 0.0 0.00 0.00 0.00 84 1016.1
20260506035224 16 338 0.0 0.0 0.00 0.00 0.00 81 1015.8
20260506034721 16 339 0.0 0.0 0.00 0.00 0.00 82 1015.7
20260506034218 16 0 0.0 0.0 0.00 0.00 0.00 80 1015.7
20260506033715 16 338 0.0 0.0 0.00 0.00 0.00 81 1015.6
20260506033212 16 22 0.0 0.0 0.00 0.00 0.00 81 1015.5
20260506032709 16 334 0.0 0.0 0.00 0.00 0.00 80 1015.5
20260506032206 16 112 0.0 0.0 0.00 0.00 0.00 82 1015.5
20260506031703 16 354 0.0 0.0 0.00 0.00 0.00 82 1015.2
20260506031200 16 353 0.0 0.0 0.00 0.00 0.00 83 1015.5
20260506030658 16 314 0.0 0.0 0.00 0.00 0.00 85 1015.4
20260506030155 16 314 0.0 0.0 0.00 0.00 0.00 84 1015.3
20260506025652 16 314 0.0 0.0 0.00 0.00 0.00 84 1015.3
20260506025148 16 314 0.0 0.0 0.00 0.00 0.00 84 1015.4
20260506024646 16 317 0.0 0.0 0.00 0.00 0.00 83 1015.3
20260506024142 17 317 0.0 0.0 0.00 0.00 0.00 83 1015.1
20260506023638 17 323 0.0 0.0 0.00 0.00 0.00 82 1015.3
20260506023135 17 323 0.0 0.0 0.00 0.00 0.00 80 1015.4
20260506022633 17 10 0.0 0.0 0.00 0.00 0.00 78 1015.3
20260506022130 17 334 0.0 0.0 0.00 0.00 0.00 77 1015.4
20260506021628 17 319 0.0 0.0 0.00 0.00 0.00 76 1015.3
20260506021125 18 318 0.0 0.0 0.00 0.00 0.00 77 1015.4
20260506020622 18 286 0.0 0.0 0.00 0.00 0.00 75 1015.4
20260506020119 18 334 0.0 0.0 0.00 0.00 0.00 73 1015.2
20260506015617 18 338 0.0 0.0 0.00 0.00 0.00 73 1015.3
20260506015114 18 315 0.0 0.0 0.00 0.00 0.00 75 1015.0
20260506014611 18 328 0.0 0.0 0.00 0.00 0.00 73 1015.3
20260506014106 19 337 0.0 0.0 0.00 0.00 0.00 73 1015.1
20260506013605 19 348 0.0 0.0 0.00 0.00 0.00 71 1015.5
20260506013102 20 354 0.0 0.0 0.00 0.00 0.00 71 1015.3
20260506012558 20 307 0.0 0.0 0.00 0.00 0.00 72 1015.2
20260506012054 20 336 0.0 0.0 0.00 0.00 0.00 70 1015.4
20260506011553 20 357 0.0 0.0 0.00 0.00 0.00 70 1015.2
20260506011048 20 303 0.0 0.0 0.00 0.00 0.00 70 1015.1
20260506010548 20 304 0.0 0.0 0.00 0.00 0.00 69 1015.2
20260506010044 20 303 0.0 0.0 0.00 0.00 0.00 70 1015.1
20260506005541 20 327 0.0 0.0 0.00 0.00 0.00 70 1014.9
20260506005037 20 4 0.0 0.0 0.00 0.00 0.00 70 1015.1
20260506004535 20 4 0.0 0.0 0.00 0.00 0.00 71 1015.2
20260506004031 20 343 0.0 0.0 0.00 0.00 0.00 71 1015.1
20260506003528 20 29 0.0 0.0 0.00 0.00 0.00 71 1015.1
20260506003024 20 209 0.0 0.0 0.00 0.00 0.00 69 1015.0
20260506002520 21 344 0.0 0.0 0.00 0.00 0.00 69 1015.2
20260506002016 20 319 0.0 0.0 0.00 0.00 0.00 70 1015.4
20260506001512 21 277 0.0 0.0 0.00 0.00 0.00 68 1015.2
20260506001010 21 14 0.0 0.0 0.00 0.00 0.00 69 1015.2
20260506000507 21 301 0.0 0.0 0.00 0.00 0.00 68 1015.2
20260506000004 21 316 0.0 0.0 0.00 0.00 0.00 69 1015.3
20260505235502 21 300 0.0 0.0 0.00 0.00 0.00 69 1015.5
20260505234958 20 303 0.0 0.0 0.00 0.00 0.00 69 1015.3
20260505234456 21 276 0.0 0.0 0.00 0.00 0.00 67 1015.1
20260505233952 21 286 0.0 0.0 0.00 0.00 0.00 67 1015.3
20260505233450 20 333 0.0 0.0 0.00 0.00 0.00 72 1015.3
20260505232947 21 311 0.0 0.0 0.00 0.00 0.00 67 1015.4
20260505232445 21 66 0.0 0.0 0.00 0.00 0.00 69 1015.7
20260505231942 21 309 0.0 0.0 0.00 0.00 0.00 70 1015.6
20260505231439 21 182 0.0 0.0 0.00 0.00 0.00 69 1015.7
20260505230938 21 313 0.0 0.0 0.00 0.00 0.00 67 1015.6
20260505230435 21 1 0.0 0.0 0.00 0.00 0.00 68 1015.7
20260505225931 21 306 0.0 0.0 0.00 0.00 0.00 63 1015.6
20260505225428 22 298 0.0 0.0 0.00 0.00 0.00 61 1015.7
20260505224924 22 325 0.0 0.0 0.00 0.00 0.00 65 1015.6
20260505224421 21 304 0.0 0.0 0.00 0.00 0.00 65 1015.9
20260505223918 22 237 0.0 0.0 0.00 0.00 0.00 67 1015.8
20260505223415 21 307 0.0 0.0 0.00 0.00 0.00 67 1015.9
20260505222911 21 306 0.0 0.0 0.00 0.00 0.00 71 1015.9
20260505222408 21 237 0.0 0.0 0.00 0.00 0.00 66 1016.0
20260505221904 22 298 0.0 0.0 0.00 0.00 0.00 62 1015.9
20260505221402 21 267 1.6 4.8 0.00 0.00 0.00 65 1016.1
20260505220858 21 163 0.0 0.0 0.00 0.00 0.00 69 1016.0
20260505220355 21 322 0.0 0.0 0.00 0.00 0.00 66 1015.9
20260505215853 21 298 0.0 0.0 0.00 0.00 0.00 66 1016.0
20260505215351 21 345 0.0 1.6 0.00 0.00 0.00 69 1016.1
20260505214849 21 317 0.0 0.0 0.00 0.00 0.00 69 1016.1
20260505214346 21 302 0.0 0.0 0.00 0.00 0.00 67 1016.0
20260505213843 21 291 0.0 0.0 0.00 0.00 0.00 73 1016.1
20260505213341 21 320 0.0 0.0 0.00 0.00 0.00 72 1016.1
20260505212837 20 41 4.8 8.0 0.00 0.00 0.00 71 1016.1
20260505212334 20 340 4.8 9.7 0.00 0.00 0.00 70 1016.4
20260505211830 21 13 0.0 0.0 0.00 0.00 0.00 77 1016.3
20260505211328 20 13 0.0 0.0 0.00 0.00 0.00 72 1016.1
20260505210824 21 353 6.4 11.3 0.00 0.00 0.00 69 1016.3
20260505210321 20 311 0.0 0.0 0.00 0.00 0.00 70 1016.4
20260505205818 21 332 0.0 0.0 0.00 0.00 0.00 68 1016.5
20260505205316 21 287 0.0 0.0 0.00 0.00 0.00 70 1016.1
20260505204812 21 311 0.0 0.0 0.00 0.00 0.00 72 1016.3
20260505204311 21 324 0.0 0.0 0.00 0.00 0.00 72 1016.5
20260505203808 21 102 0.0 0.0 0.00 0.00 0.00 71 1016.4
20260505203304 21 45 0.0 0.0 0.00 0.00 0.00 74 1016.4
20260505202800 21 109 0.0 0.0 0.00 0.00 0.00 72 1016.3
20260505202257 21 297 0.0 0.0 0.00 0.00 0.00 70 1016.5
20260505201753 21 114 0.0 0.0 0.00 0.00 0.00 72 1016.5
20260505201251 21 336 0.0 0.0 0.00 0.00 0.00 74 1016.5
20260505200749 21 333 0.0 0.0 0.00 0.00 0.00 72 1016.5
20260505200246 20 315 0.0 0.0 0.00 0.00 0.00 75 1016.4
20260505195741 20 337 0.0 0.0 0.00 0.00 0.00 72 1016.5
20260505195239 20 311 1.6 4.8 0.00 0.00 0.00 71 1016.6
20260505194736 21 311 1.6 4.8 0.00 0.00 0.00 69 1016.2
20260505194232 21 288 0.0 0.0 0.00 0.00 0.00 72 1016.6
20260505193722 20 324 0.0 0.0 0.00 0.00 0.00 73 1016.5
20260505193220 20 172 0.0 0.0 0.00 0.00 0.00 74 1016.6
20260505192718 20 309 0.0 0.0 0.00 0.00 0.00 69 1016.6
20260505192215 20 34 0.0 0.0 0.00 0.00 0.00 72 1016.5
20260505191714 21 348 0.0 0.0 0.00 0.00 0.00 71 1016.6
20260505191212 21 147 0.0 0.0 0.00 0.00 0.00 74 1016.6
20260505190708 21 157 0.0 0.0 0.00 0.00 0.00 70 1016.5
20260505190207 20 321 0.0 0.0 0.00 0.00 0.00 71 1016.6
20260505185704 20 302 0.0 0.0 0.00 0.00 0.00 71 1016.5
20260505185201 21 141 0.0 0.0 0.00 0.00 0.00 70 1016.6
20260505184657 21 304 0.0 0.0 0.00 0.00 0.00 71 1016.7
20260505184154 20 29 0.0 1.6 0.00 0.00 0.00 70 1016.7
20260505183651 21 66 0.0 0.0 0.00 0.00 0.00 68 1016.8
20260505183149 20 130 0.0 0.0 0.00 0.00 0.00 75 1016.7
20260505182645 21 329 0.0 0.0 0.00 0.00 0.00 69 1016.5
20260505182142 20 358 0.0 0.0 0.00 0.00 0.00 71 1016.5
20260505181638 19 278 0.0 0.0 0.00 0.00 0.00 75 1016.8
20260505181136 20 327 0.0 0.0 0.00 0.00 0.00 71 1016.7
20260505180632 20 119 0.0 0.0 0.00 0.00 0.00 74 1016.6
20260505180129 19 339 0.0 0.0 0.00 0.00 0.00 69 1016.7
20260505175625 20 319 0.0 0.0 0.00 0.00 0.00 68 1016.7
20260505175122 20 345 1.6 3.2 0.00 0.00 0.00 68 1016.9
20260505174618 20 329 0.0 0.0 0.00 0.00 0.00 71 1016.7
20260505174114 19 332 0.0 0.0 0.00 0.00 0.00 69 1016.7
20260505173611 20 283 0.0 0.0 0.00 0.00 0.00 71 1016.9
20260505173108 20 310 0.0 0.0 0.00 0.00 0.00 72 1016.9
20260505172606 19 338 0.0 0.0 0.00 0.00 0.00 71 1016.7
20260505172102 19 326 0.0 0.0 0.00 0.00 0.00 71 1017.0
20260505171557 18 317 0.0 0.0 0.00 0.00 0.00 74 1016.8
20260505171054 17 338 0.0 0.0 0.00 0.00 0.00 75 1016.8
20260505170551 18 340 0.0 0.0 0.00 0.00 0.00 72 1016.9
20260505170047 17 332 0.0 0.0 0.00 0.00 0.00 73 1016.9
20260505165543 17 321 0.0 0.0 0.00 0.00 0.00 74 1016.9
20260505165039 17 80 0.0 0.0 0.00 0.00 0.00 74 1016.9
20260505164535 17 341 0.0 0.0 0.00 0.00 0.00 76 1016.9
20260505164032 17 342 0.0 0.0 0.00 0.00 0.00 73 1017.1
20260505163531 17 141 0.0 0.0 0.00 0.00 0.00 75 1017.1
20260505163027 17 53 0.0 0.0 0.00 0.00 0.00 77 1017.0
20260505162521 17 182 0.0 1.6 0.00 0.00 0.00 78 1016.9
20260505162018 16 320 0.0 0.0 0.00 0.00 0.00 76 1017.0
20260505161514 17 169 0.0 0.0 0.00 0.00 0.00 77 1017.0
20260505161012 16 300 0.0 0.0 0.00 0.00 0.00 77 1017.1
20260505160510 16 160 0.0 0.0 0.00 0.00 0.00 79 1016.8
20260505152946 15 107 0.0 0.0 0.00 0.00 0.00 83 1016.9
20260505152443 15 135 0.0 0.0 0.00 0.00 0.00 83 1017.0
20260505151943 15 154 0.0 0.0 0.00 0.00 0.00 82 1017.0
20260505151439 15 333 0.0 0.0 0.00 0.00 0.00 83 1017.1
20260505150937 14 143 0.0 1.6 0.00 0.00 0.00 84 1017.0
20260505150434 14 207 0.0 0.0 0.00 0.00 0.00 83 1016.9
20260505140404 12 34 0.0 0.0 0.00 0.00 0.00 88 1016.3